Location: Betpouey
(42.8833°N, 0.0333°E)
Time: 08:02:57
(UTC+00:00)

NOSS 0 Rocket - Visible Passes

Search period start: 21 June 2021 00:00
Search period end: 01 July 2021 00:00
Orbit: 934 x 956 km, 70.0° (Epoch: 20 June)

Date Brightness Start Highest point End Pass type
(mag) Time Alt. Az. Time Alt. Az. Time Alt. Az.
21 Jun 6.5 00:52:47 10° WNW 00:55:04 12° NW 00:57:20 10° NNW visible
21 Jun 4.3 21:32:45 19° S 21:36:55 45° ESE 21:42:48 10° NE visible
21 Jun 5.4 23:17:55 10° WSW 23:23:30 34° NW 23:29:08 10° N visible
22 Jun 3.9 21:47:15 12° SSW 21:53:01 73° ESE 21:59:16 10° NNE visible
22 Jun 6.0 23:35:18 10° W 23:40:08 23° NW 23:44:59 10° N visible
23 Jun 5.3 20:19:23 10° SE 20:23:31 19° E 20:27:40 10° ENE visible
23 Jun 4.2 22:03:05 10° SSW 22:09:16 72° WNW 22:15:32 10° NNE visible
23 Jun 6.5 23:53:15 10° WNW 23:56:54 16° NW 00:00:34 10° N visible
24 Jun 4.7 20:34:05 10° SSE 20:39:25 31° ESE 20:44:48 10° NE visible
24 Jun 4.9 22:19:42 10° SW 22:25:39 46° WNW 22:31:39 10° NNE visible
25 Jun 6.8 00:12:21 10° NW 00:13:51 11° NW 00:15:20 10° NNW visible
25 Jun 4.1 20:49:29 10° S 20:55:27 51° ESE 21:01:28 10° NE visible
25 Jun 5.7 22:36:46 10° WSW 22:42:09 30° NW 22:47:38 10° N visible
26 Jun 3.9 21:05:24 10° SSW 21:11:36 82° ESE 21:17:52 10° NNE visible
26 Jun 6.3 22:54:16 10° W 22:58:50 21° NW 23:03:26 10° N visible
27 Jun 4.4 21:21:43 10° SW 21:27:52 64° WNW 21:34:06 10° NNE visible
27 Jun 6.7 23:12:25 10° WNW 23:15:39 14° NW 23:18:54 10° N visible
28 Jun 5.3 21:38:27 10° SW 21:44:18 41° NW 21:50:11 10° NNE visible
29 Jun 4.0 20:07:56 10° S 20:13:59 58° ESE 20:20:07 10° NNE visible
29 Jun 6.0 21:55:37 10° WSW 22:00:51 27° NW 22:06:07 10° N visible
30 Jun 7.4 03:28:39 10° NNE 03:30:33 11° NE 03:32:26 10° NE visible
30 Jun 4.0 20:23:57 10° SSW 20:30:10 88° WNW 20:36:28 10° NNE visible
30 Jun 6.7 22:13:16 10° W 22:17:33 19° NW 22:21:51 10° N visible
